FW0248 Weather Reports


time (UTC)temp
F
wind
direction
speed
knots
gust
knots
rain 1hr
in
rain 24hr
in
rain mn
in
humidity
%
barometer
mb
20240418162523 87 187 0.9 4.3 0.00 0.00 0.00 45 1018.4
20240418162022 86 187 0.9 4.3 0.00 0.00 0.00 44 1018.5
20240418161751 87 187 0.9 2.6 0.00 0.00 0.00 47 1018.6
20240418161020 86 187 0.9 2.6 0.00 0.00 0.00 47 1018.6
20240418160518 86 187 0.9 2.6 0.00 0.00 0.00 46 1018.8
20240418160255 85 187 0.9 2.6 0.00 0.00 0.00 46 1018.7
20240418155519 86 187 0.0 2.6 0.00 0.00 0.00 44 1018.8
20240418155015 87 187 0.0 0.9 0.00 0.00 0.00 43 1018.8
20240418154515 85 187 0.0 2.6 0.00 0.00 0.00 49 1018.8
20240418154016 83 187 0.9 2.6 0.00 0.00 0.00 50 1018.9
20240418153515 83 187 0.9 3.5 0.00 0.00 0.00 49 1018.9
20240418153014 84 187 0.9 3.5 0.00 0.00 0.00 49 1018.8
20240418152513 82 187 0.9 3.5 0.00 0.00 0.00 53 1018.8
20240418152015 83 187 0.9 3.5 0.00 0.00 0.00 50 1018.9
20240418151518 82 187 0.0 1.7 0.00 0.00 0.00 55 1019.0
20240418151513 83 187 0.0 1.7 0.00 0.00 0.00 49 1018.9
20240418150513 80 186 0.9 3.5 0.00 0.00 0.00 56 1019.0
20240418150015 80 187 0.9 3.5 0.00 0.00 0.00 56 1019.0
20240418145512 81 187 0.9 3.5 0.00 0.00 0.00 55 1019.0
20240418145242 80 187 0.9 2.6 0.00 0.00 0.00 58 1018.9
20240418144512 79 187 0.9 2.6 0.00 0.00 0.00 59 1018.9
20240418144240 79 187 0.9 3.5 0.00 0.00 0.00 59 1018.9
20240418143742 78 187 0.9 3.5 0.00 0.00 0.00 59 1018.9
20240418143009 79 187 0.0 1.7 0.00 0.00 0.00 59 1018.9
20240418142740 78 187 0.0 1.7 0.00 0.00 0.00 60 1018.9
20240418142010 78 187 0.0 2.6 0.00 0.00 0.00 62 1018.7
20240418141511 76 187 0.9 3.5 0.00 0.00 0.00 63 1018.8
20240418141009 76 187 0.9 3.5 0.00 0.00 0.00 65 1018.8
20240418140509 75 187 0.9 3.5 0.00 0.00 0.00 66 1018.7
20240418140240 74 187 0.9 3.5 0.00 0.00 0.00 67 1018.6
20240418135509 74 187 0.9 3.5 0.00 0.00 0.00 67 1018.6
20240418135010 74 187 0.0 1.7 0.00 0.00 0.00 68 1018.6
20240418134740 73 187 0.9 3.5 0.00 0.00 0.00 70 1018.7
20240418134008 73 187 0.9 3.5 0.00 0.00 0.00 69 1018.6
20240418133507 73 187 0.0 1.7 0.00 0.00 0.00 73 1018.7
20240418133007 72 187 0.0 1.7 0.00 0.00 0.00 74 1018.7
20240418132507 70 187 0.0 1.7 0.00 0.00 0.00 78 1018.7
20240418132241 68 187 0.0 3.5 0.00 0.00 0.00 78 1018.6
20240418131508 67 187 0.0 3.5 0.00 0.00 0.00 78 1018.6
20240418131239 66 187 0.0 4.3 0.00 0.00 0.00 81 1018.6
20240418130506 65 187 0.0 4.3 0.00 0.00 0.00 82 1018.6
20240418130007 64 187 0.0 0.0 0.00 0.00 0.00 82 1018.6
20240418125506 64 187 0.0 0.9 0.00 0.00 0.00 83 1018.7
20240418125006 63 187 0.0 0.9 0.00 0.00 0.00 84 1018.7
20240418124507 62 187 0.0 0.0 0.00 0.00 0.00 85 1018.7
20240418124006 62 187 0.0 0.0 0.00 0.00 0.00 85 1018.7
20240418123507 62 187 0.0 0.0 0.00 0.00 0.00 86 1018.7
20240418123004 61 187 0.0 0.9 0.00 0.00 0.00 85 1018.7
20240418122504 61 187 0.0 1.7 0.00 0.00 0.00 86 1018.6
20240418122233 60 187 0.0 1.7 0.00 0.00 0.00 87 1018.6
20240418121502 59 187 0.0 0.9 0.00 0.00 0.00 89 1018.6
20240418120959 59 187 0.0 0.0 0.00 0.00 0.00 90 1018.5
20240418120729 58 187 0.0 0.0 0.00 0.00 0.00 91 1018.4
20240418115957 58 187 0.0 0.0 0.00 0.00 0.00 92 1018.4
20240418115456 58 187 0.0 0.0 0.00 0.00 0.00 91 1018.4
20240418114957 57 187 0.0 0.0 0.00 0.00 0.00 92 1018.3
20240418114457 0 0.0 0.0 0.00 0.00 0.00 1018.3
20240418113909 0 0.0 0.0 0.00 0.00 0.00 1018.1
20240418113409 0 0.0 0.0 0.00 0.00 0.00 1018.0
20240418112907 0 0.0 0.0 0.00 0.00 0.00 1018.1
20240418112638 0 0.0 0.0 0.00 0.00 0.00 1018.2
20240418111908 0 0.0 0.0 0.00 0.00 0.00 1018.1
20240418111407 0 0.0 0.0 0.00 0.00 0.00 1017.9
20240418111139 0 0.0 0.0 0.00 0.00 0.00 1017.8
20240418110407 0 0.0 0.0 0.00 0.00 0.00 1017.8
20240418105906 0 0.0 0.0 0.00 0.00 0.00 1017.7
20240418105405 0 0.0 0.0 0.00 0.00 0.00 1017.6
20240418104903 0 0.0 0.0 0.00 0.00 0.00 1017.6
20240418104538 0 0.0 0.0 0.00 0.00 0.00 1017.5
20240418103809 0 0.0 0.0 0.00 0.00 0.00 1017.5
20240418103522 0 0.0 0.0 0.00 0.00 0.00 1017.5
20240418102708 0 0.0 0.0 0.00 0.00 0.00 1017.5
20240418102206 0 0.0 0.0 0.00 0.00 0.00 1017.2
20240418101610 0 0.0 0.0 0.00 0.00 0.00 1017.1
20240418101107 0 0.0 0.0 0.00 0.00 0.00 1017.2
20240418100600 0 0.0 0.0 0.00 0.00 0.00 1017.2
20240418100239 0 189 0.0 0.0 0.00 0.00 0.00 1017.1
20240418095505 0 189 0.0 0.0 0.00 0.00 0.00 1017.0
20240418094955 58 189 0.0 0.0 0.00 0.00 0.00 89 1017.0
20240418094453 58 189 0.0 0.0 0.00 0.00 0.00 89 1017.2
20240418093954 58 187 0.0 0.0 0.00 0.00 0.00 90 1017.1
20240418093725 58 187 0.0 0.0 0.00 0.00 0.00 88 1017.2
20240418093224 58 187 0.0 0.0 0.00 0.00 0.00 88 1017.2
20240418092454 58 186 0.0 0.0 0.00 0.00 0.00 87 1017.2
20240418091956 58 187 0.0 0.0 0.00 0.00 0.00 87 1017.1
20240418091454 59 186 0.0 0.0 0.00 0.00 0.00 87 1017.1
20240418090958 59 187 0.0 0.0 0.00 0.00 0.00 87 1017.3
20240418090953 59 187 0.0 0.0 0.00 0.00 0.00 87 1017.2
20240418085952 59 187 0.0 0.9 0.00 0.00 0.00 88 1017.2
20240418085452 59 187 0.0 0.9 0.00 0.00 0.00 88 1017.2
20240418084952 59 187 0.0 0.9 0.00 0.00 0.00 87 1017.1
20240418084452 59 187 0.0 0.9 0.00 0.00 0.00 88 1017.1
20240418083953 58 187 0.0 0.0 0.00 0.00 0.00 88 1016.9
20240418083452 59 187 0.0 0.0 0.00 0.00 0.00 88 1017.0
20240418082952 59 187 0.0 0.0 0.00 0.00 0.00 87 1017.0
20240418082723 59 187 0.0 0.0 0.00 0.00 0.00 88 1017.0
20240418081952 59 187 0.0 0.9 0.00 0.00 0.00 88 1017.1
20240418081455 59 187 0.0 0.0 0.00 0.00 0.00 88 1016.9
20240418081451 59 186 0.0 0.9 0.00 0.00 0.00 88 1017.0
20240418080450 60 186 0.0 0.0 0.00 0.00 0.00 87 1016.9
20240418075951 60 187 0.0 0.0 0.00 0.00 0.00 86 1017.0
20240418075449 60 187 0.0 0.0 0.00 0.00 0.00 85 1017.0
20240418075222 60 187 0.0 0.0 0.00 0.00 0.00 85 1016.9
20240418074720 60 187 0.0 0.0 0.00 0.00 0.00 84 1016.9
20240418073950 61 187 0.0 0.0 0.00 0.00 0.00 84 1016.8
20240418073448 61 187 0.0 0.0 0.00 0.00 0.00 83 1016.9
20240418073219 61 187 0.0 0.0 0.00 0.00 0.00 82 1016.8
20240418072446 61 187 0.0 0.0 0.00 0.00 0.00 83 1017.0
20240418071947 62 187 0.0 0.0 0.00 0.00 0.00 82 1017.0
20240418071446 62 187 0.0 0.0 0.00 0.00 0.00 82 1017.0
20240418070946 62 187 0.0 0.0 0.00 0.00 0.00 81 1017.0
20240418070446 62 187 0.0 0.0 0.00 0.00 0.00 81 1017.0
20240418065945 63 187 0.0 0.9 0.00 0.00 0.00 80 1017.0
20240418065447 63 187 0.0 0.9 0.00 0.00 0.00 79 1017.1
20240418064947 64 187 0.0 0.9 0.00 0.00 0.00 78 1017.1
20240418064444 64 187 0.0 0.0 0.00 0.00 0.00 77 1017.1
20240418063944 65 187 0.0 0.0 0.00 0.00 0.00 76 1017.1
20240418063443 65 186 0.0 0.0 0.00 0.00 0.00 75 1017.1
20240418062944 65 187 0.0 0.0 0.00 0.00 0.00 75 1017.1
20240418062444 65 187 0.0 0.0 0.00 0.00 0.00 75 1017.2
20240418061944 65 187 0.0 0.9 0.00 0.00 0.00 75 1017.3
20240418061442 66 187 0.0 0.9 0.00 0.00 0.00 74 1017.3
20240418060940 66 187 0.0 0.9 0.00 0.00 0.00 74 1017.3
20240418060440 66 186 0.0 0.9 0.00 0.00 0.00 74 1017.3
20240418060211 66 187 0.0 0.9 0.00 0.00 0.00 74 1017.2
20240418055437 67 187 0.0 1.7 0.00 0.00 0.00 74 1017.4
20240418054938 67 187 0.0 4.3 0.00 0.00 0.00 74 1017.4
20240418054438 67 187 0.0 4.3 0.00 0.00 0.00 75 1017.4
20240418053939 67 187 0.0 0.9 0.00 0.00 0.00 74 1017.5
20240418053437 67 187 0.0 0.9 0.00 0.00 0.00 75 1017.5
20240418052937 67 187 0.0 1.7 0.00 0.00 0.00 74 1017.4
20240418052437 67 187 0.0 1.7 0.00 0.00 0.00 74 1017.5
20240418051936 67 187 0.0 0.9 0.00 0.00 0.00 74 1017.5
20240418051433 68 187 0.0 0.9 0.00 0.00 0.00 73 1017.5
20240418050934 68 187 0.0 3.5 0.00 0.00 0.00 73 1017.4
20240418050431 68 187 0.0 3.5 0.00 0.00 0.00 73 1017.3
20240418045932 68 187 0.0 0.0 0.00 0.00 0.00 74 1017.3
20240418045432 68 187 0.0 2.6 0.00 0.00 0.00 75 1017.3
20240418044931 68 187 0.0 2.6 0.00 0.00 0.00 74 1017.3
20240418044431 68 187 0.0 0.9 0.00 0.00 0.00 76 1017.3
20240418043932 68 187 0.0 1.7 0.00 0.00 0.00 77 1017.3
20240418043431 68 186 0.0 1.7 0.00 0.00 0.00 76 1017.3
20240418042931 68 187 0.0 0.9 0.00 0.00 0.00 77 1017.4
20240418042433 68 187 0.0 1.7 0.00 0.00 0.00 76 1017.5
20240418041932 68 187 0.0 1.7 0.00 0.00 0.00 76 1017.5
20240418041431 68 187 0.0 1.7 0.00 0.00 0.00 78 1017.5
20240418040931 68 187 0.0 1.7 0.00 0.00 0.00 79 1017.5
20240418040431 68 187 0.0 0.9 0.00 0.00 0.00 78 1017.6
20240418035931 69 187 0.0 0.9 0.00 0.00 0.00 77 1017.6
20240418035703 69 186 0.0 1.7 0.00 0.00 0.00 77 1017.5
20240418034931 69 187 0.0 1.7 0.00 0.00 0.00 75 1017.5
20240418034432 69 187 0.0 0.9 0.00 0.00 0.00 75 1017.6
20240418033931 69 187 0.0 1.7 0.00 0.00 0.00 75 1017.5
20240418033427 69 187 0.0 1.7 0.00 0.00 0.00 76 1017.5
20240418032928 69 187 0.0 0.0 0.00 0.00 0.00 75 1017.6
20240418032425 70 187 0.0 1.7 0.00 0.00 0.00 75 1017.9
20240418031919 70 187 0.0 1.7 0.00 0.00 0.00 75 1017.8
20240418031420 69 187 0.0 1.7 0.00 0.00 0.00 77 1017.6
20240418030919 69 187 0.0 1.7 0.00 0.00 0.00 78 1017.7
20240418030417 69 187 0.0 1.7 0.00 0.00 0.00 80 1017.6
20240418025917 69 187 0.0 0.0 0.00 0.00 0.00 82 1017.6
20240418025913 69 187 0.0 0.9 0.00 0.00 0.00 81 1017.6
20240418024913 69 187 0.0 0.0 0.00 0.00 0.00 81 1017.8
20240418024411 69 187 0.0 0.0 0.00 0.00 0.00 81 1017.8
20240418023911 70 187 0.0 0.0 0.00 0.00 0.00 80 1017.8
20240418023411 70 187 0.0 0.0 0.00 0.00 0.00 79 1017.8
20240418022911 70 187 0.0 0.0 0.00 0.00 0.00 79 1017.8
20240418022411 70 187 0.0 0.0 0.00 0.00 0.00 79 1017.7
20240418021911 70 187 0.0 0.0 0.00 0.00 0.00 79 1017.7
20240418021411 70 187 0.0 0.0 0.00 0.00 0.00 78 1017.6
20240418021143 71 187 0.0 0.0 0.00 0.00 0.00 78 1017.6
20240418020638 71 187 0.0 0.0 0.00 0.00 0.00 78 1017.5
20240418015907 71 187 0.0 0.0 0.00 0.00 0.00 78 1017.6
20240418015405 71 187 0.0 0.0 0.00 0.00 0.00 77 1017.5
20240418014905 71 187 0.0 0.0 0.00 0.00 0.00 78 1017.4
20240418014405 71 187 0.0 0.0 0.00 0.00 0.00 77 1017.3
20240418013906 71 186 0.0 0.0 0.00 0.00 0.00 77 1017.4
20240418013405 71 187 0.0 0.0 0.00 0.00 0.00 76 1017.3
20240418012906 71 187 0.0 0.0 0.00 0.00 0.00 76 1017.1
20240418012405 71 187 0.0 0.0 0.00 0.00 0.00 76 1017.2
20240418011906 71 187 0.0 0.0 0.00 0.00 0.00 76 1017.3
20240418011403 72 187 0.0 0.0 0.00 0.00 0.00 76 1017.2
20240418010904 72 187 0.0 0.0 0.00 0.00 0.00 75 1017.2
20240418010404 72 187 0.0 0.0 0.00 0.00 0.00 75 1017.2
20240418005904 72 187 0.0 0.0 0.00 0.00 0.00 75 1017.2
20240418005403 72 187 0.0 1.7 0.00 0.00 0.00 76 1017.2
20240418004904 72 187 0.9 1.7 0.00 0.00 0.00 76 1017.2
20240418004403 72 187 0.9 1.7 0.00 0.00 0.00 76 1017.0
20240418003903 72 187 0.9 1.7 0.00 0.00 0.00 76 1017.0
20240418003403 72 187 0.9 1.7 0.00 0.00 0.00 76 1016.9
20240418002902 73 187 0.9 1.7 0.00 0.00 0.00 76 1017.0
20240418002401 73 187 0.0 1.7 0.00 0.00 0.00 76 1016.9
20240418001901 73 187 0.0 1.7 0.00 0.00 0.00 76 1017.0
20240418001401 73 187 0.0 1.7 0.00 0.00 0.00 76 1016.8
20240418000902 73 187 0.9 2.6 0.00 0.00 0.00 76 1016.7
20240418000401 73 187 1.7 4.3 0.00 0.00 0.00 76 1016.6
20240417235901 73 187 0.9 4.3 0.00 0.00 0.00 76 1016.6
20240417235401 73 187 1.7 2.6 0.00 0.00 0.00 76 1016.4
20240417234901 73 187 1.7 3.5 0.00 0.00 0.00 75 1016.4
20240417234632 74 187 0.9 3.5 0.00 0.00 0.00 75 1016.4
20240417233901 74 187 0.9 3.5 0.00 0.00 0.00 75 1016.5
20240417233359 74 187 0.9 3.5 0.00 0.00 0.00 74 1016.4
20240417232900 74 187 0.9 2.6 0.00 0.00 0.00 74 1016.7
20240417232359 74 187 0.9 2.6 0.00 0.00 0.00 74 1016.6
20240417231859 74 187 0.9 2.6 0.00 0.00 0.00 74 1016.7
20240417231629 74 187 0.9 1.7 0.00 0.00 0.00 74 1016.7
20240417230859 74 187 0.9 2.6 0.00 0.00 0.00 74 1016.7
20240417230358 74 187 1.7 6.1 0.00 0.00 0.00 73 1016.5
20240417225859 75 187 1.7 6.1 0.00 0.00 0.00 73 1016.4
20240417225636 75 187 1.7 4.3 0.00 0.00 0.00 72 1016.6
20240417225359 75 187 1.7 4.3 0.00 0.00 0.00 73 1016.5
20240417224357 75 187 1.7 7.0 0.00 0.00 0.00 72 1016.4
20240417223857 75 187 2.6 7.0 0.00 0.00 0.00 72 1016.5
20240417223357 75 187 2.6 5.2 0.00 0.00 0.00 72 1016.7
20240417222857 75 187 2.6 7.0 0.00 0.00 0.00 71 1017.0
20240417222355 75 187 2.6 7.0 0.00 0.00 0.00 71 1016.9
20240417222236 75 186 1.7 5.2 0.00 0.00 0.00 71 1017.0
20240417222126 75 186 1.7 5.2 0.00 0.00 0.00 71 1017.0
20240417220854 75 186 2.6 7.0 0.00 0.00 0.00 71 1017.0
20240417220354 75 186 2.6 7.0 0.00 0.00 0.00 71 1017.0
20240417220121 75 186 2.6 5.2 0.00 0.00 0.00 71 1016.9
20240417215350 75 186 2.6 5.2 0.00 0.00 0.00 70 1017.0
20240417214851 75 186 1.7 5.2 0.00 0.00 0.00 70 1017.0
20240417214350 76 186 1.7 4.3 0.00 0.00 0.00 70 1017.0
20240417213849 76 186 1.7 4.3 0.00 0.00 0.00 70 1017.0
20240417213620 76 186 1.7 4.3 0.00 0.00 0.00 69 1017.0
20240417212850 76 186 2.6 7.8 0.00 0.00 0.00 68 1016.8
20240417212349 76 186 1.7 7.8 0.00 0.00 0.00 68 1017.0
20240417211853 76 186 1.7 4.3 0.00 0.00 0.00 68 1017.1
20240417211849 76 186 1.7 4.3 0.00 0.00 0.00 68 1017.1
20240417210848 76 186 1.7 3.5 0.00 0.00 0.00 68 1017.2
20240417210621 76 186 1.7 3.5 0.00 0.00 0.00 67 1017.3
20240417205852 77 186 1.7 6.1 0.00 0.00 0.00 67 1017.3
20240417205848 76 186 1.7 4.3 0.00 0.00 0.00 68 1017.3
20240417205121 77 186 2.6 6.1 0.00 0.00 0.00 66 1017.3
20240417204349 77 186 2.6 5.2 0.00 0.00 0.00 66 1017.3
20240417204119 77 186 1.7 4.3 0.00 0.00 0.00 66 1017.4
20240417203348 78 186 0.9 3.5 0.00 0.00 0.00 66 1017.4
20240417202848 78 186 0.9 2.6 0.00 0.00 0.00 65 1017.4
20240417202347 78 186 0.9 4.3 0.00 0.00 0.00 64 1017.5
20240417201847 78 186 0.9 4.3 0.00 0.00 0.00 63 1017.4
20240417201615 79 186 0.9 5.2 0.00 0.00 0.00 62 1017.5
20240417201117 79 186 0.9 5.2 0.00 0.00 0.00 62 1017.5
20240417200345 79 186 0.9 3.5 0.00 0.00 0.00 62 1017.5
20240417195842 79 186 0.9 4.3 0.00 0.00 0.00 62 1017.5
20240417195342 79 186 0.9 4.3 0.00 0.00 0.00 62 1017.6
20240417194843 80 186 0.9 4.3 0.00 0.00 0.00 61 1017.6
20240417194342 80 186 0.9 3.5 0.00 0.00 0.00 61 1017.5
20240417193842 80 186 1.7 8.7 0.00 0.00 0.00 61 1017.6
20240417193342 80 186 2.6 8.7 0.00 0.00 0.00 60 1017.7
20240417192843 80 185 2.6 5.2 0.00 0.00 0.00 60 1017.8
20240417192613 80 184 1.7 6.1 0.00 0.00 0.00 60 1017.9
20240417191844 81 184 0.9 6.1 0.00 0.00 0.00 60 1018.0
20240417191342 80 184 1.7 7.8 0.00 0.00 0.00 62 1018.3
20240417190843 80 184 1.7 7.8 0.00 0.00 0.00 61 1018.3
20240417190343 80 187 0.9 4.3 0.00 0.00 0.00 62 1018.3
20240417185842 80 187 0.9 5.2 0.00 0.00 0.00 61 1018.5
20240417185347 80 187 1.7 11.3 0.00 0.00 0.00 61 1018.6
20240417185342 80 187 1.7 7.0 0.00 0.00 0.00 61 1018.7
20240417184343 81 187 1.7 11.3 0.00 0.00 0.00 60 1018.6
20240417183843 81 183 0.9 4.3 0.00 0.00 0.00 60 1018.8
20240417183342 81 183 0.9 5.2 0.00 0.00 0.00 59 1018.9
20240417182840 82 183 0.9 5.2 0.00 0.00 0.00 59 1018.8
20240417182339 82 183 0.9 4.3 0.00 0.00 0.00 59 1018.8
20240417181836 82 183 0.9 4.3 0.00 0.00 0.00 59 1018.8
20240417181338 81 183 1.7 8.7 0.00 0.00 0.00 60 1018.9
20240417180834 81 183 1.7 8.7 0.00 0.00 0.00 59 1018.9
20240417180333 82 182 1.7 6.1 0.00 0.00 0.00 59 1018.9
20240417175832 82 182 1.7 7.0 0.00 0.00 0.00 58 1018.9
20240417175330 82 182 1.7 7.0 0.00 0.00 0.00 57 1019.1
20240417174832 83 182 1.7 7.0 0.00 0.00 0.00 58 1019.0
20240417174601 82 182 2.6 7.0 0.00 0.00 0.00 59 1018.8
20240417174437 81 177 1.7 6.1 0.00 0.00 0.00 61 1018.8
20240417173328 80 177 1.7 6.1 0.00 0.00 0.00 63 1018.8
20240417172828 80 177 2.6 6.1 0.00 0.00 0.00 64 1018.7
20240417172328 80 177 1.7 6.1 0.00 0.00 0.00 63 1018.8
20240417172100 80 177 1.7 5.2 0.00 0.00 0.00 63 1018.9
20240417171329 80 177 1.7 6.1 0.00 0.00 0.00 62 1018.8
20240417170829 80 177 1.7 6.1 0.00 0.00 0.00 61 1019.0
20240417170326 80 177 0.9 5.2 0.00 0.00 0.00 63 1019.1
20240417165826 80 177 0.9 3.5 0.00 0.00 0.00 62 1019.3
20240417165557 80 177 0.9 3.5 0.00 0.00 0.00 63 1019.5
20240417164824 79 177 0.9 4.3 0.00 0.00 0.00 65 1019.7
20240417164323 79 177 1.7 4.3 0.00 0.00 0.00 64 1019.7
20240417163822 79 177 0.9 4.3 0.00 0.00 0.00 62 1019.7
20240417163320 80 177 0.9 2.6 0.00 0.00 0.00 63 1019.8
20240417162822 78 177 0.9 3.5 0.00 0.00 0.00 66 1020.0